sat.trackr.live / text

‹ back to catalog

STARLINK-30073

NORAD 56840 · 2023-079T

PAYLOAD ACTIVE UNKNOWN

§ Identity

Operator
Country
US
Launch date
2023-06-04
Launch site
AFETR
Launch vehicle
Mass (kg)
RCS (m²)

Purposes: comms

External: N2YO · Heavens-Above · Gunter

§ Orbital elements

Epoch: 2026-05-25T04:00:03.998880Z

Period
94.27 min
Inclination
43.0031°
Eccentricity
0.0002060
Mean motion
15.27559261 rev/d
Perigee alt
481.7 km
Apogee alt
484.5 km
Semi-major
6,861.2 km
B*
1.2737e-3
RAAN
220.4743°
Arg perigee
271.8955°
Mean anomaly
309.4640°
Rev number
584

§ Raw data

STARLINK-300731 56840U 23079T   26145.16671295  .00034932  00000+0  12737-2 0  99912 56840  43.0031 220.4743 0002060 271.8955 309.4640 15.27559261  5849

JSON: /api/v1/satellites/56840 · /tle

For live sub-satellite position, see the globe view (requires WebGL).

§ Visibility from observer

Set your observer location to see the next 7 days of passes ≥ 10°. The values pass through the URL so the page stays shareable.

No JS? Fill the form by hand. The geolocation button needs JavaScript.